Terminal Aerodrome Forecast
Issued by NWS

Home | Current Version | Previous Version | Text Only | Print | Product List | Glossary On
Versions: 1 2 3 4 5 6 7 8 9 10 11 12 13 14 15 16 17 18 19 20 21 22 23 24 25 26 27 28 29 30 31 32
000
FTUS45 KGJT 112333
TAFVEL
TAF
KVEL 112333Z 1200/1224 VRB04KT P6SM VCTS SCT080CB SCT110 BKN200
      TEMPO 1200/1202 VRB20G30KT -TSRA SCT050 BKN080CB
     FM120300 34006KT P6SM SCT090 BKN110
     FM120600 32005KT P6SM SCT110 BKN200
     FM121200 VRB03KT P6SM SCT200
     FM122000 VRB05KT P6SM SCT090 SCT150=

USA.gov is the U.S. government's official web portal to all federal, state and local government web resources and services.